03:55
Airports
History
Links
Donate
Help keep this website running!
PayPal
Bitcoin
This page is community maintained. The information is intended for PC simulator navigation or reference.
Always use approved charts for navigation.
EGJJ
Jersey
Jersey (EGJJ)
Saint Peter, St Peter,
(C)
Lat/Lng:49° 12' 28.67" N / 2° 11' 43.06" W
49.207964 / -2.195294
Elevation:277'ft / 84mMSL
ID / ICAO:EGJJ
Runways:1
Longest:09-27
Asphalt 1,706m / 5,597ft
Controlled:Yes
METAR03:50 GMT 2017-10-24
Altimeter: 30.15
Visibility: 0.2 statute miles
Wind: 15 knots (from 230°)
Temp: 16°c / 61°f
Humidity: 100.0%

METAR: EGJJ 240350Z AUTO 23015KT 0300 0200 R26///// OVC001/// 16/16 Q1021 RESHRA

(Powered by phpweather)
Airport Radio Frequencies
Jersey Information: 129.72
Ground: 121.9
Tower: 119.45
Approach: 120.3
Nearby VORs <50NM
Nearby NDBs
Runway 09 / 27
Dimensions:1705.9 x 46m 5597' x 151'ft
Surface:Asphalt
Edge Lights:High intensity
Runway 09 [A]Runway 27 [B]
Heading:082°TH 262°TH
Lat:
Lng:
49° 12' 25.18"N
2° 12' 24.95"W
49° 12' 32.16"N
2° 11' 1.17"W
ALS:CalvertCalvert ILS Cat II
TDZ:Yes, lighted
User Notes and Comments
49° 12' 28.67" N / 2° 11' 43.06" W
Distance To
Airport ID:
Nearby Airports
4 Portbail 23.4 NM
5022 ENE 67°
(C) Guernsey 24.1 NM
EGJB ( WX ) NW 310°
(C) Lessay 31.2 NM
LFOM E 90°
4 Vauville 33.1 NM
LFAU NNE 29°
(C) Alderney 34.5 NM
EGJA ( WX ) N 358°
(C) Granville 36.4 NM
LFRF SE 128°
(C) Base ULM 42.2 NM
3559 SSE 159°
VFR Chart
Flight Planning at SkyVector.com